Thunder radar more information blitzortung!


Löydät sääaseman tiedot myös:

European Weather Network

Finland Weather Exchange

Weather Underground

AWEKAS



Weather Underground säähistoriasivu

Päivittäin yhteenveto Lokakuu 19, 2018 Yksiköt:  Metriset    Englantilaiset   Molemmat
« Edellinen Päivä
Seuraava Päivä »
Päivittäin Viikoittain Kuukausittain Vuosittain Mukautettu
  Tämänhetkinen: Korkea: Matala: Keskiarvo:
Lämpötila: -15.1 °C -17.8 °C -15.1 °C -13.9 °C
Kastepiste: -16 °C -17.8 °C -16.1 °C -15.5 °C
Kosteus: 89 % Humidity % 72 % 81 %
Tuulen nopeus: 0 km/h 0 km/h 0 km/h 4.3 km/h
Tuulenpuuska: 0 km/h 0 km/h - -
Tuuli:Calm - - WSW
Ilmanpaine: 34415.3 hPa 0 hPa 34300.2 hPa -
Sade: 0 mm      
Historical Graphs
 
 
Taulukkotiedot Lokakuu 19, 2018
Aika Lämpötila Kastepiste Ilmanpaine Tuuli Tuulen nopeus Tuulenpuuska Kosteus Sademäärä (tunneittain)
-17.8 °C -17.8 °C 0 hPa Calm     Humidity % 0 mm
00:00 -14.1 °C -15.6 °C 34300.2 hPa SW 2.6 km/h 12.9 km/h 83 % 0 mm
00:15 -13.9 °C -15.4 °C 34303.6 hPa WSW 7.7 km/h 23.3 km/h 83 % 0 mm
00:30 -13.9 °C -15.5 °C 34300.2 hPa WSW 5.1 km/h 25.9 km/h 82 % 0 mm
00:45 -13.8 °C -15.4 °C 34303.6 hPa WSW 7.7 km/h 20.8 km/h 82 % 0 mm
01:00 -13.9 °C -15.4 °C 34307 hPa West 5.1 km/h 18.2 km/h 83 % 0 mm
01:15 -14.1 °C -15.6 °C 34307 hPa SW 2.6 km/h 20.8 km/h 83 % 0 mm
01:30 -14.2 °C -15.6 °C 34307 hPa WSW 2.6 km/h 12.9 km/h 84 % 0 mm
01:45 -14.3 °C -15.6 °C 34310.3 hPa SSW 5.1 km/h 15.6 km/h 85 % 0 mm
02:00 -14.3 °C -15.6 °C 34307 hPa SSW 2.6 km/h 15.6 km/h 85 % 0 mm
02:15 -14.3 °C -15.6 °C 34303.6 hPa SW 2.6 km/h 18.2 km/h 85 % 0 mm
02:30 -14.4 °C -15.7 °C 34307 hPa SW 2.6 km/h 12.9 km/h 85 % 0 mm
02:45 -14.5 °C -15.7 °C 34307 hPa SW 2.6 km/h 25.9 km/h 86 % 0 mm
03:00 -14.4 °C -15.7 °C 34303.6 hPa SW 5.1 km/h 20.8 km/h 85 % 0 mm
03:15 -14.4 °C -15.7 °C 34307 hPa West 5.1 km/h 20.8 km/h 85 % 0 mm
03:30 -14.4 °C -15.8 °C 34303.6 hPa SW 5.1 km/h 15.6 km/h 84 % 0 mm
03:45 -14.4 °C -15.8 °C 34307 hPa SW 7.7 km/h 20.8 km/h 84 % 0 mm
04:00 -14.5 °C -15.9 °C 34313.7 hPa WSW 7.7 km/h 23.3 km/h 84 % 0 mm
04:15 -14.6 °C -15.9 °C 34310.3 hPa WSW 2.6 km/h 25.9 km/h 84 % 0 mm
04:30 -14.6 °C -15.9 °C 34303.6 hPa SSW 7.7 km/h 23.3 km/h 85 % 0 mm
04:45 -14.7 °C -16 °C 34310.3 hPa WSW 2.6 km/h 12.9 km/h 85 % 0 mm
05:00 -14.8 °C -15.9 °C 34310.3 hPa WSW 5.1 km/h 18.2 km/h 86 % 0 mm
05:15 -14.8 °C -16.1 °C 34307 hPa WSW 2.6 km/h 18.2 km/h 86 % 0 mm
05:30 -14.8 °C -15.9 °C 34310.3 hPa WSW 5.1 km/h 18.2 km/h 87 % 0 mm
05:45 -14.7 °C -15.9 °C 34313.7 hPa WSW 5.1 km/h 15.6 km/h 86 % 0 mm
06:00 -14.7 °C -15.9 °C 34310.3 hPa WSW 2.6 km/h 10.3 km/h 86 % 0 mm
06:15 -14.8 °C -15.9 °C 34313.7 hPa SW 5.1 km/h 15.6 km/h 87 % 0 mm
06:30 -14.8 °C -15.9 °C 34313.7 hPa WSW 5.1 km/h 12.9 km/h 87 % 0 mm
06:45 -14.8 °C -15.9 °C 34313.7 hPa SSW 5.1 km/h 23.3 km/h 87 % 0 mm
07:00 -14.9 °C -15.9 °C 34313.7 hPa WSW 2.6 km/h 12.9 km/h 88 % 0 mm
07:15 -14.9 °C -15.9 °C 34313.7 hPa WSW 5.1 km/h 18.2 km/h 88 % 0 mm
07:30 -14.8 °C -15.9 °C 34317.1 hPa West 7.7 km/h 20.8 km/h 87 % 0 mm
07:45 -14.9 °C -15.9 °C 34320.5 hPa West 2.6 km/h 15.6 km/h 88 % 0 mm
08:00 -14.9 °C -15.9 °C 34317.1 hPa West 5.1 km/h 15.6 km/h 88 % 0 mm
08:15 -14.9 °C -16 °C 34323.9 hPa West 2.6 km/h 12.9 km/h 87 % 0 mm
08:30 -14.8 °C -15.9 °C 34327.3 hPa West 5.1 km/h 20.8 km/h 87 % 0 mm
08:45 -14.8 °C -15.9 °C 34327.3 hPa SW 5.1 km/h 15.6 km/h 87 % 0 mm
09:00 -14.8 °C -15.9 °C 34330.7 hPa WSW 5.1 km/h 15.6 km/h 87 % 0 mm
09:15 -14.8 °C -15.9 °C 34334 hPa SW 5.1 km/h 20.8 km/h 87 % 0 mm
09:30 -14.6 °C -15.8 °C 34334 hPa WSW 7.7 km/h 33.6 km/h 86 % 0 mm
09:45 -14.4 °C -15.7 °C 34340.8 hPa SW 7.7 km/h 15.6 km/h 85 % 0 mm
10:00 -14.3 °C -15.7 °C 34344.2 hPa WSW 7.7 km/h 28.5 km/h 85 % 0 mm
10:15 -14.2 °C -15.6 °C 34347.6 hPa WSW 7.7 km/h 20.8 km/h 85 % 0 mm
10:30 -14 °C -15.4 °C 34344.2 hPa West 10.3 km/h 38.8 km/h 84 % 0 mm
10:45 -13.9 °C -15.4 °C 34347.6 hPa WSW 7.7 km/h 23.3 km/h 83 % 0 mm
11:00 -13.8 °C -15.3 °C 34354.4 hPa West 10.3 km/h 31.1 km/h 82 % 0 mm
11:15 -13.7 °C -15.2 °C 34354.4 hPa WSW 7.7 km/h 23.3 km/h 82 % 0 mm
11:30 -13.4 °C -15.2 °C 34357.7 hPa West 12.9 km/h 31.1 km/h 81 % 0 mm
11:45 -13.3 °C -15.1 °C 34354.4 hPa West 10.3 km/h 25.9 km/h 80 % 0 mm
12:00 -13.2 °C -15 °C 34357.7 hPa WNW 10.3 km/h 25.9 km/h 80 % 0 mm
12:15 -13 °C -15.1 °C 34357.7 hPa WNW 7.7 km/h 28.5 km/h 78 % 0 mm
12:30 -12.9 °C -15.1 °C 34361.1 hPa WNW 7.7 km/h 23.3 km/h 76 % 0 mm
12:45 -12.7 °C -15.1 °C 34367.9 hPa NW 5.1 km/h 23.3 km/h 75 % 0 mm
13:00 -12.6 °C -14.8 °C 34367.9 hPa WNW 7.7 km/h 25.9 km/h 76 % 0 mm
13:15 -12.6 °C -14.9 °C 34367.9 hPa West 7.7 km/h 23.3 km/h 75 % 0 mm
13:30 -12.4 °C -14.9 °C 34371.3 hPa WSW 5.1 km/h 18.2 km/h 74 % 0 mm
13:45 -12.4 °C -15 °C 34378.1 hPa WNW 7.7 km/h 20.8 km/h 73 % 0 mm
14:00 -12.3 °C -14.8 °C 34374.7 hPa WNW 7.7 km/h 23.3 km/h 73 % 0 mm
14:15 -12.2 °C -14.9 °C 34381.4 hPa West 7.7 km/h 28.5 km/h 72 % 0 mm
14:30 -12.1 °C -14.8 °C 34384.8 hPa WSW 5.1 km/h 15.6 km/h 72 % 0 mm
14:45 -12.3 °C -14.8 °C 34384.8 hPa Calm     73 % 0 mm
15:00 -12.2 °C -14.8 °C 34388.2 hPa Calm     73 % 0 mm
15:15 -12.1 °C -14.8 °C 34388.2 hPa Calm     72 % 0 mm
15:30 -12.1 °C -14.8 °C 34388.2 hPa Calm     72 % 0 mm
15:45 -12.1 °C -14.8 °C 34391.6 hPa Calm     72 % 0 mm
16:00 -12.1 °C -14.8 °C 34391.6 hPa Calm     72 % 0 mm
16:15 -12.2 °C -14.8 °C 34391.6 hPa Calm     73 % 0 mm
16:30 -12.3 °C -14.8 °C 34391.6 hPa Calm     73 % 0 mm
16:45 -12.7 °C -15 °C 34391.6 hPa Calm     75 % 0 mm
17:00 -12.9 °C -15.1 °C 34391.6 hPa Calm     77 % 0 mm
17:15 -13.2 °C -15.1 °C 34398.4 hPa Calm     79 % 0 mm
17:30 -13.3 °C -15.1 °C 34398.4 hPa Calm     80 % 0 mm
17:45 -13.6 °C -15.2 °C 34398.4 hPa Calm     81 % 0 mm
18:00 -13.9 °C -15.4 °C 34401.8 hPa Calm     83 % 0 mm
18:15 -14.4 °C -15.7 °C 34401.8 hPa Calm     85 % 0 mm
18:30 -14.8 °C -15.8 °C 34408.5 hPa Calm     87 % 0 mm
18:45 -14.9 °C -15.8 °C 34411.9 hPa Calm     89 % 0 mm
19:00 -15.1 °C -16 °C 34415.3 hPa Calm     89 % 0 mm
Esan sääasema
Terveisin Weather Underground - 2.75 mb

Alkuperäinen skripti  Jim McMurry - jmcmurry@mwt.net Sovitettu myös templatelle  Wim van der Kuil - Leuven-Template.eu

Laitteet joita käytämme:

Sääasema
Davis VP2

Sääasemaohjelma
Cumulus

Sääaseman tietokone
Asus EeePC

Palveluntarjoaja
Suncomet

Davis VP2

Cumulus

Asus EeePC

Suncomet